Вернуться в каталог

ATLAS D R/B

АктивенLEO
NORAD 2328·ROCKET BODY·🇺🇸 United States

Запущен Jul 14, 1966 с Vandenberg Space Force Base

Loading…

Ближайшие Пролёты (ближайшие 24 часа)

TLE

СвежийSource: Space-Track

Эпоха: Sep 14, 2026, 23:07 UTC

1 02328U 66063C   26257.96341550  .00000258  00000-0  12170-4 0  9991
2 02328 144.2312 113.9435 0009202  70.4182  43.2544 13.69987362 12576

Отслеживайте ATLAS D R/B в реальном времени с AllMySat

Download on the App Store